Theta_e
278 278 278 278 277 277 277 278 278 278 279 278 277 277 278 278 277 277 276 276 276 275 275 274 274 274 273 274 275 274 274 276 275 274 275 274 274 272 272 272 272 272 272
278 278 277 277 277 276 275 276 277 276 277 276 276 276 276 276 276 276 275 275 275 274 274 274 273 274 272 273 273 272 272 272 273 271 272 272 272 271 270 270 270 271 271
277 277 277 276 276 275 275 275 276 275 275 275 276 275 275 275 275 275 275 275 275 274 273 272 271 272 271 271 271 271 271 271 271 270 270 271 271 270 269 269 269 269 270
277 276 276 276 276 276 276 276 276 275 274 274 274 273 273 274 274 274 274 273 273 274 274 274 273 272 271 271 271 271 271 270 270 269 268 268 268 269 268 267 266 268 268
276 276 275 276 276 276 276 276 276 276 276 276 275 275 274 273 273 272 272 272 272 272 273 274 275 276 276 275 272 270 270 270 269 268 267 267 267 266 265 266 266 267 268
274 274 275 276 276 276 276 275 275 275 275 275 275 275 275 276 277 276 273 272 272 272 271 272 272 272 274 275 274 274 272 270 268 268 267 265 265 266 266 266 266 266 264
274 274 275 275 274 274 275 275 275 275 275 275 274 274 274 275 277 275 274 271 270 270 270 271 272 272 271 270 272 271 270 271 271 269 266 266 265 266 266 266 266 265 265
273 273 274 274 273 273 273 273 273 274 274 274 274 275 275 276 276 275 272 269 268 268 269 270 270 271 273 270 269 268 267 268 268 269 268 268 268 269 269 268 267 266 265
271 272 272 273 272 272 271 272 272 273 273 273 273 274 274 274 276 275 272 270 268 268 268 269 270 271 274 275 269 267 267 267 270 272 272 272 271 271 270 267 263 261 260
271 271 272 272 272 271 271 271 271 272 272 272 272 272 272 275 277 275 272 270 268 268 268 268 270 272 274 274 269 267 265 267 267 266 264 264 264 263 267 264 263 260 259
271 271 271 270 270 270 270 270 270 270 270 269 269 270 270 271 275 277 275 271 269 268 268 267 267 272 273 273 272 266 268 269 263 260 260 261 261 262 262 263 263 262 260
269 269 268 268 270 269 267 268 267 267 267 267 267 268 269 269 274 276 276 275 274 269 268 268 268 272 272 272 270 271 271 265 261 259 258 259 260 260 261 262 263 263 263
266 264 265 267 269 268 267 266 267 266 266 266 267 266 267 269 269 273 274 275 274 271 270 270 271 270 270 267 267 269 265 261 259 258 257 258 259 260 260 260 261 262 261
263 263 264 265 266 266 268 267 266 265 265 266 266 266 266 267 269 271 271 271 272 271 270 264 267 267 266 266 261 262 260 260 258 257 257 258 258 258 258 260 259 260 260
264 264 265 265 264 265 266 266 267 266 267 264 264 265 265 266 269 275 274 271 270 270 261 259 260 259 259 259 260 259 259 258 257 258 257 257 257 257 257 259 259 259 258
264 264 264 264 264 265 265 266 272 273 273 274 273 268 268 271 273 275 275 275 273 270 260 259 258 258 258 258 258 258 258 257 258 257 256 256 255 256 257 258 259 258 258
263 263 263 263 263 263 262 263 264 267 273 275 274 274 274 274 273 274 274 274 270 265 259 258 257 257 257 257 257 257 257 258 257 255 255 255 255 255 255 256 257 258 258
260 261 262 263 263 262 262 262 261 261 262 263 267 272 273 273 274 273 274 267 260 258 255 256 256 256 256 256 257 256 257 256 255 255 255 254 254 254 255 255 257 258 258
260 260 260 261 261 261 260 259 258 258 258 259 258 263 263 269 272 272 273 261 259 258 257 255 255 255 256 256 256 255 255 254 254 254 254 253 254 254 255 256 257 258 259
258 259 259 260 259 258 258 258 258 257 258 259 260 261 259 258 260 261 259 258 257 256 257 257 257 256 255 255 255 254 254 253 253 253 253 254 255 255 256 257 258 259 260
262 261 261 258 258 259 260 260 260 260 261 260 261 261 264 259 262 263 263 260 258 257 258 257 257 257 256 255 254 254 253 253 253 253 254 254 255 255 257 258 259 259 260
262 262 261 261 261 259 260 260 261 260 261 261 262 260 268 267 266 263 262 262 261 259 258 257 257 256 256 255 255 254 254 253 254 254 254 254 256 256 257 258 258 259 260
263 263 262 262 261 261 260 260 260 261 261 262 262 262 262 262 263 263 262 263 262 261 259 256 255 255 255 255 254 254 253 254 255 255 254 254 255 256 257 257 258 259 259
264 264 263 263 263 262 262 263 262 262 263 262 262 263 263 264 264 263 264 264 263 262 260 258 256 255 255 255 255 255 254 254 254 254 253 253 255 256 257 258 258 261 263
265 265 265 265 264 264 264 263 264 264 264 263 264 264 264 265 265 265 264 264 263 261 260 259 257 255 254 254 254 254 254 255 254 255 254 254 255 255 258 262 264 265 266
265 265 265 266 265 266 265 264 264 264 264 265 265 265 265 265 265 265 265 264 262 261 260 259 257 255 254 255 255 255 256 259 260 262 264 264 264 265 265 266 266 268 268
Wind_Speed
10 9 10 10 13 14 13 13 13 14 15 17 19 18 9 17 19 18 17 16 18 16 14 13 13 11 9 8 8 8 9 6 7 3 2 2 2 6 6 7 6 7 8
9 10 11 12 13 15 16 14 13 17 18 19 17 13 20 15 16 18 18 14 16 16 13 13 13 10 13 9 8 10 9 9 4 6 2 3 1 4 7 8 7 7 9
10 11 13 13 15 15 18 15 14 17 17 19 15 15 15 14 17 16 16 15 16 14 12 14 12 11 11 9 9 8 8 7 7 4 2 2 1 3 9 7 9 9 8
10 12 14 14 14 15 15 16 16 15 17 17 13 15 16 15 14 14 13 14 15 12 12 13 13 11 10 10 9 9 8 7 6 5 3 2 2 4 7 9 10 9 11
9 11 12 12 13 14 15 16 14 15 16 15 13 14 13 13 9 11 12 13 12 12 11 12 12 14 22 15 7 7 7 6 4 4 3 3 4 8 8 7 10 11 11
11 11 10 13 13 14 14 16 15 14 14 10 13 14 14 10 20 19 12 10 11 11 11 10 9 10 15 18 15 14 10 7 6 3 2 5 9 8 8 9 10 10 9
10 9 10 11 13 12 13 12 13 11 11 11 11 12 13 11 20 21 19 11 12 12 10 8 8 7 8 7 12 11 8 7 3 2 4 6 9 9 11 12 12 11 12
9 10 10 10 11 11 11 11 11 9 9 8 10 10 11 11 19 19 18 12 11 11 9 8 8 7 5 5 5 4 4 4 6 5 6 8 9 11 11 11 13 13 12
7 8 7 7 10 10 12 10 7 8 8 8 8 10 11 10 15 15 11 9 9 9 7 7 7 8 7 7 1 4 6 6 7 11 12 16 19 19 16 9 8 9 10
6 6 6 7 9 9 7 6 6 7 9 7 9 8 9 6 13 12 9 5 7 5 5 5 7 8 9 9 2 3 6 8 5 6 8 11 12 11 15 7 7 8 9
5 6 6 7 7 6 6 6 6 7 7 6 7 6 6 7 7 12 11 5 4 2 1 2 2 9 9 9 9 4 8 6 8 6 7 7 8 8 6 6 7 8 10
5 6 5 4 4 5 5 5 6 4 5 5 4 4 3 4 6 7 7 6 5 2 1 2 4 12 13 13 10 14 15 9 6 7 7 8 8 8 8 9 11 11 12
5 5 4 4 4 3 4 5 3 4 3 2 2 1 0 1 2 3 4 5 5 1 1 5 12 13 15 11 14 15 11 6 6 7 8 9 8 9 11 10 12 12 15
6 4 3 4 4 3 3 3 2 2 3 3 3 2 1 1 2 3 2 3 5 4 5 4 9 11 12 12 7 7 6 6 6 7 8 9 8 8 9 9 10 10 12
5 3 3 3 3 2 1 2 3 3 2 2 2 1 1 2 2 7 5 1 1 2 3 2 3 3 6 6 6 6 6 6 6 6 8 8 9 9 10 9 10 11 12
5 3 2 2 2 2 1 2 6 7 8 9 7 5 2 7 10 11 10 8 7 2 0 2 3 5 7 7 7 8 7 7 6 7 8 8 9 9 11 11 10 11 13
5 5 3 3 3 3 3 3 3 4 7 9 8 8 10 10 11 12 12 10 6 1 3 4 5 6 7 7 7 7 8 8 7 8 9 9 9 10 11 11 12 12 14
5 5 5 5 4 4 4 4 3 3 4 3 5 9 13 14 14 13 13 4 3 3 3 4 6 6 6 7 7 8 8 8 8 8 9 9 9 10 11 12 12 14 14
6 4 4 4 4 5 4 4 4 4 5 4 2 5 5 11 15 14 12 4 4 5 4 5 6 6 7 7 7 8 9 9 9 9 9 9 10 9 12 13 14 19 20
5 6 6 6 4 5 5 6 5 6 6 6 6 7 2 1 3 3 4 4 5 6 7 7 7 6 7 7 8 8 8 9 9 9 10 10 10 10 12 14 14 15 15
7 7 10 5 6 7 7 8 7 6 8 7 8 6 11 5 6 7 6 6 7 7 8 7 7 7 7 8 8 8 9 9 9 10 10 10 10 11 12 14 15 15 16
8 8 8 10 8 8 8 8 8 8 8 8 8 5 17 8 8 8 8 8 8 8 7 7 7 7 7 8 8 8 9 10 10 10 11 11 11 12 13 14 15 15 16
9 9 8 8 8 8 8 8 9 9 9 9 8 7 6 8 9 9 9 9 7 8 6 6 7 8 8 8 8 9 9 11 11 10 12 12 13 13 13 15 16 16 16
11 12 11 10 9 9 10 10 9 11 10 9 9 9 9 9 9 10 9 8 8 7 6 6 7 10 10 9 8 8 10 12 10 11 13 13 14 16 15 17 17 21 20
11 11 11 11 10 10 10 10 10 9 9 9 10 9 9 9 10 10 9 8 8 7 8 7 6 10 13 14 14 15 17 20 17 16 12 16 19 23 20 18 20 20 23
11 11 10 9 9 9 9 9 9 9 10 9 10 10 10 9 9 9 8 8 7 7 7 6 9 13 15 13 15 18 18 19 18 20 16 16 17 17 17 21 26 20 23
Wind_Direction
34 39 47 52 59 60 60 59 61 66 64 66 62 60 53 65 72 76 73 78 83 81 71 74 74 69 67 57 54 52 53 39 104 105 94 88 117 12 354 340 333 326 325
42 53 55 61 63 65 63 60 61 69 59 65 66 70 63 54 73 75 76 70 77 79 80 76 67 60 61 56 59 60 61 47 87 95 78 7 303 346 336 329 332 328 325
53 61 64 64 68 71 69 65 62 71 69 65 68 78 83 76 69 70 76 78 73 73 77 76 77 78 73 67 62 65 65 70 70 103 85 360 322 334 333 331 329 322 316
62 68 68 65 70 72 78 77 69 74 78 73 65 67 68 74 72 78 80 81 83 75 70 78 77 79 81 73 66 63 59 63 59 61 43 3 310 322 327 329 325 321 315
53 64 66 67 64 67 69 74 72 68 69 72 76 76 75 67 64 76 83 86 88 87 72 70 69 74 73 72 66 60 61 61 57 51 26 333 330 328 333 319 303 306 308
54 59 70 75 73 68 66 68 69 63 67 76 79 83 85 88 100 101 100 97 92 87 73 68 73 63 66 65 59 56 49 38 32 5 5 327 294 298 303 309 309 316 322
62 61 66 74 75 69 68 73 72 75 85 80 82 84 89 92 83 80 75 69 69 70 69 64 64 57 66 65 47 44 35 9 307 233 273 279 290 306 307 308 306 304 293
62 67 66 75 76 73 75 74 71 64 67 74 73 73 78 74 75 76 75 73 71 69 63 52 43 29 66 69 48 12 348 295 261 252 254 281 289 296 301 311 308 296 292
66 64 63 77 91 83 66 60 68 77 72 66 63 70 77 73 72 72 75 74 73 68 61 42 24 2 354 21 7 302 300 302 280 271 296 308 308 310 311 308 303 316 311
71 74 66 71 78 79 92 86 76 78 80 74 71 52 49 80 86 78 78 83 69 56 40 30 359 352 355 342 198 282 313 299 267 286 297 304 309 300 304 302 298 296 303
90 80 70 64 71 76 80 65 67 76 79 70 69 47 41 27 44 73 75 69 70 47 6 329 324 315 334 334 345 305 289 346 342 316 306 309 307 303 294 285 278 271 275
86 79 68 57 89 82 88 82 71 83 90 73 73 69 36 18 55 59 63 84 122 171 212 239 260 336 338 334 341 320 325 356 338 335 326 313 309 305 301 289 278 267 259
111 110 106 88 93 112 106 103 99 83 94 111 123 120 27 348 338 333 339 359 9 48 355 311 341 332 331 328 321 322 349 336 321 306 297 290 287 285 287 284 280 274 268
119 116 130 140 126 81 75 78 109 170 187 190 183 178 245 298 328 332 315 328 331 329 333 339 323 325 322 313 322 313 297 285 278 279 284 288 288 292 295 296 291 297 291
145 151 118 99 82 82 138 193 209 232 202 197 243 215 221 320 310 319 325 287 268 310 71 333 302 308 309 303 290 278 275 272 269 280 288 293 291 292 289 290 282 285 278
148 160 171 157 165 178 207 278 259 241 236 231 228 204 242 265 287 298 302 308 324 265 62 267 282 286 288 300 303 304 294 284 287 288 286 283 281 284 287 291 283 275 280
171 168 169 177 193 190 205 215 238 291 275 243 248 264 278 259 269 286 290 292 304 11 243 262 265 276 282 287 287 286 290 290 288 275 273 273 274 278 285 283 283 282 281
191 181 185 192 195 190 207 220 213 227 247 267 282 266 267 269 265 276 281 347 281 256 242 256 272 274 279 281 285 283 285 284 278 274 272 272 271 273 282 279 280 283 285
193 205 196 196 199 207 196 214 224 229 233 245 291 273 274 274 275 274 273 219 251 265 244 257 249 263 270 271 272 275 274 275 274 274 271 269 269 267 273 276 279 284 285
195 207 189 204 203 212 214 220 224 228 235 239 238 240 227 210 239 231 235 243 250 257 270 265 267 256 257 263 272 271 273 271 267 265 266 268 271 270 273 279 283 287 285
200 203 200 191 207 216 220 221 224 220 230 233 240 228 223 213 243 244 249 238 242 248 254 254 261 260 256 258 260 267 265 270 267 269 271 273 276 278 277 280 284 283 284
201 210 202 213 212 211 218 218 220 224 230 236 247 238 247 246 245 243 248 254 247 235 239 244 259 255 253 256 261 266 272 274 274 272 274 277 280 282 283 282 280 280 282
203 208 212 220 219 220 219 221 223 226 233 235 238 245 227 231 236 239 245 250 247 251 234 227 245 262 255 252 247 248 261 267 270 271 278 283 284 281 279 279 282 283 282
202 208 214 219 216 221 228 231 227 227 231 233 234 237 239 237 239 238 240 244 247 250 238 239 238 248 269 268 261 254 250 258 263 266 266 269 274 278 275 276 277 276 280
206 209 211 217 220 222 230 231 233 233 231 230 237 238 241 241 242 242 243 239 243 247 253 246 244 256 262 266 267 269 265 268 265 270 269 264 263 266 265 272 283 284 283
210 213 218 218 222 224 226 229 230 230 234 237 238 238 240 241 243 243 242 242 244 250 256 256 257 258 272 277 273 271 274 278 280 279 276 274 277 280 281 283 285 289 292